Lynden Pindling International Airport
MYNN : now visible

Airfield :











YOU CAN JOIN US ON...

 
LOGIN :

Register | Disclaimer

   EN    FR    IT 

 









Legend :    VFR   Marginal VFR   IFR   Intensive IFR   Very Intensive IFR
Visi :
Ceiling :
>= 8 km
>= 3000ft
5 to 8 km
1000 to 3000 ft
1500m to 5 km
500 to 1000 ft
800 to 1500m
200 to 500 ft
< 800m
< 200 ft
Symbols :   Thunderstorms  Fog  Heavy snow  Heavy precipitations  Wind > 20 kt







- Airport Elevation : 16 ft
- IATA code : NAS


MYNN - Lynden Pindling International

CURRENT METAR :
  • 160600Z 21007KT 9999 VCTS FEW016CB BKN200 27/25 A2996

EXPIRED METARs :
  • 160500Z 22006KT 9999 VCTS FEW018CB BKN200 27/25 A2997
  • 160400Z 24007KT 9999 VCTS FEW018CB BKN200 28/25 A2998

TAF MYNN
Valid from the 16 at 06:00 until the 17 at 06:00 UTC


160500Z 1606/1706 22008KT 9999 FEW018CB BKN200
PROB30
TEMPO 1611/1615 8000 SHRA FEW015CB SCT016 BKN120
BECMG 1620/1622 26012KT 9999 FEW016CB SCT018 BKN200
No reported NOTAMs for that airfield.



MET'MAP, your aeronautical weather chart ! - Copyright ORBIFLY December 2007 - Disclaimer

ORBIFLY MET'MAP TEAM :

Programming & Development : Alexandra Zaïnal
Concept & Development : Baudouin d'Aumeries
Co-Development & Prog : Marc-Olivier Méhu
Technical & hardware support : Manuel Goepfert

Contact : metmap@orbifly.com




SOURCES & CREDITS :

   NOAA       Earth
Advisory